LUOJIA-1 01

Satellite information

Favourite Embed

Satellite Type and Status

PAYLOADIN ORBIT

Key statistics

Satellite LUOJIA-1 01 at a glance.

Uptime

2536

Days in orbit

Revolutions

≈ 14.9

Per day

Orbit

SSO

Sun Synchronous Orbit

Inclination

97.8

Latest

Satellite identification and parameters

Extended collection of information and parameters for LUOJIA-1 01.

Object identification

Identified? True

Debris? False

Object name: LUOJIA-1 01

International designator: 2018-048B

Object number (NORAD): 43485

Object ID (CCSDS): 43485

Country: PEOPLES REPUBLIC OF CHINA (PRC)

Current information (Y/N): Y

RCS size: MEDIUM

Orbital parameters

Period: 96.965 minutes

Inclination: 97.8429 deg

SMA: 6991.481 km

Apoapsis: 619.872 km

Periapsis: 606.82 km

RAAN: 210.3537 deg

Eccentricy: 0.0009334

Argument of periapsis: 11.6653 deg

Mean anomaly: 348.4776 deg

Mean motion: 14.85077085 rev/day

Mean motion (dot): 0.00002766 rev/day2

B* drag term: 0.00032978 1/REarth

Two-line elements (TLE)

Creation date: May 10, 2025, 10:56 p.m.

Reference frame: TEME

Reference center: EARTH

Epoch: May 10, 2025, 9:25 p.m. UTC

TLE line 0: 0 LUOJIA-1 01

TLE line 1: 1 43485U 18048B 25130.89267640 .00002766 00000-0 32978-3 0 9991

TLE line 2: 2 43485 97.8429 210.3537 0009334 11.6653 348.4776 14.85077085374443

Live tracking on map

Real-time ground track for satellite LUOJIA-1 01.

In-orbit conjunctions

There are no conjunctions computed for LUOJIA-1 01, at the moment. Check back to stay up to date, as we update our databases every day.

Go to all conjunctions

Associated space launch

Gaofen is a series of civilian Earth observation satellites developed and launched for the China High-definition Earth Observation System (CHEOS), a state-sponsored programme aimed to develop a near-real time, all-weather, global surveillance network consisting of satellite, near-space (stratosphere) airships, and aerial observation platforms. Luojia-1 is a 6U Earth observation cubesat prototype.

LUOJIA-1 01 was lifted into orbit during the mission ‘Long March 2D | Gaofen 6 & Luojia-1’, on board a Long March 2D space rocket.

The launch took place on June 2, 2018, 4:13 a.m. from Launch Area 4 (SLS-2 / 603).

For more information about the launch, click the button.

Launch to space Long March 2D | Gaofen 6 & Luojia-1
Long March 2D | Gaofen 6 & Luojia-1

Agency: N/A

Status: Launch Successful

Launch date: June 2, 2018, 4:13 a.m. UTC

Rocket: Long March 2D

Launch pad: Launch Area 4 (SLS-2 / 603)

Location: Jiuquan Satellite Launch Center, People's Republic of China

...

Latest news about this satellite

There are no fresh news available about this satellite. Check back as we update our databases every day.


Newsletter sign-up

Weekly statistics, charts and insights to help you stay on top of the space industry.